Temp
27 28 27 26 26 26 26 26 26 26 26 27 27 27 26 26 26 26 26 26 25 25 25 23 23 22 21 20 20 20 21 20 14 14 15 15 15 15 15 15 15 15 14
27 27 27 27 26 26 26 26 26 26 26 26 26 26 26 26 26 25 25 25 25 26 25 24 22 22 20 20 20 21 20 20 17 14 15 14 14 15 15 15 15 15 14
26 27 27 26 26 26 26 26 26 26 26 26 26 25 25 25 26 26 26 26 26 26 23 22 24 21 20 19 20 20 20 20 19 16 14 14 14 15 14 14 15 14 14
27 27 27 27 27 27 26 26 25 25 25 25 26 26 25 26 26 26 26 26 25 26 25 24 23 22 21 20 20 20 20 19 18 16 15 14 15 15 14 14 13 13 13
26 26 26 26 26 26 25 25 24 24 24 24 25 25 25 25 25 25 25 25 25 25 25 24 24 22 20 20 20 20 19 19 17 16 15 15 15 14 14 14 14 13 13
25 24 23 24 24 24 24 23 23 24 24 25 25 24 24 25 25 25 24 25 24 25 24 24 23 21 20 20 20 20 20 19 17 16 15 15 16 15 15 15 14 13 13
22 22 23 23 23 23 23 23 23 23 22 22 23 23 23 23 24 24 24 24 23 23 22 22 21 20 20 20 19 19 18 18 19 19 18 17 17 17 16 15 14 14 14
22 21 21 21 22 22 22 22 22 22 22 22 22 23 23 24 23 23 23 23 23 23 23 21 21 20 19 19 19 19 18 18 18 18 18 18 18 18 18 17 16 15 14
21 21 21 21 21 21 21 21 21 21 21 21 21 22 22 23 23 22 22 22 22 22 22 20 20 20 19 19 19 18 18 17 18 18 18 17 17 17 16 16 15 14 14
21 21 21 20 20 20 20 20 20 20 20 21 20 21 21 21 22 22 21 20 20 20 20 20 19 19 19 19 19 18 17 17 17 16 16 16 16 16 16 16 16 14 14
21 20 20 20 20 20 20 20 20 20 20 20 19 18 19 18 18 18 19 19 19 20 19 19 18 17 19 18 18 18 18 17 16 16 16 16 16 16 16 16 16 16 16
20 20 20 20 20 20 19 19 19 19 19 18 18 18 17 17 18 18 18 18 19 19 19 19 18 18 18 17 17 18 18 17 17 16 16 16 16 16 16 16 15 16 15
20 20 20 20 20 20 19 18 18 18 17 16 16 16 16 16 17 17 17 17 17 17 18 18 18 18 18 17 17 18 17 17 16 15 16 16 17 17 16 15 15 15 15
20 20 20 20 20 20 19 18 18 17 16 16 16 15 15 15 15 15 15 16 17 17 17 18 18 18 18 18 18 17 18 18 17 17 17 17 16 16 16 15 15 14 15
19 20 20 20 20 19 18 17 17 16 16 16 15 14 13 13 13 14 14 15 15 16 16 17 18 17 17 17 17 18 17 17 17 16 17 17 16 16 16 16 15 15 15
19 19 19 20 19 18 17 16 16 15 15 15 14 14 13 13 14 15 15 15 15 15 16 16 16 16 16 16 16 16 17 17 17 17 17 17 17 16 17 16 16 15 14
19 19 19 19 18 18 17 16 15 14 14 14 13 13 13 12 13 14 15 16 16 16 16 16 16 15 15 15 16 16 16 17 18 17 17 17 18 17 17 17 17 16 15
18 18 18 17 17 16 15 14 13 13 12 12 12 12 12 11 12 13 14 15 15 15 15 16 16 15 15 15 15 15 16 17 17 17 17 18 18 18 17 17 17 16 16
18 17 17 15 14 13 13 12 12 11 11 11 11 11 11 11 11 12 12 11 12 12 13 14 15 16 15 15 15 15 15 16 17 16 17 17 18 18 18 18 18 18 17
16 16 16 14 13 12 11 11 10 10 10 10 10 9 10 10 9 9 9 9 9 9 10 11 12 14 14 15 15 15 15 14 15 16 17 18 18 18 19 18 18 17 17
15 14 14 13 11 10 9 9 8 8 8 8 8 8 8 8 7 7 7 8 8 8 8 9 10 11 12 14 15 15 15 15 15 16 17 18 18 18 18 17 16 18 18
13 11 11 10 9 8 7 7 7 7 6 6 6 6 6 6 6 6 6 7 7 7 8 8 9 10 10 12 13 14 15 15 15 16 17 17 18 18 17 18 18 18 18
11 9 8 7 7 6 6 6 5 5 5 5 5 5 5 5 5 5 5 6 6 7 7 7 8 9 10 11 12 13 14 15 15 16 16 17 16 17 18 17 18 17 18
11 11 9 7 6 6 5 5 5 5 5 4 4 4 4 4 4 5 5 5 5 6 6 6 6 7 8 9 10 11 13 14 15 15 15 15 16 16 17 17 18 17 17
12 10 9 7 6 6 5 6 5 5 4 3 3 3 4 4 4 5 5 5 5 5 5 5 5 6 7 8 9 10 11 12 14 14 14 14 15 17 17 16 17 17 17
11 10 9 8 7 6 6 5 5 5 4 4 4 4 4 4 4 4 4 4 4 5 5 4 4 5 6 7 7 8 10 11 13 13 13 13 14 15 15 15 16 16 17
Height
778 781 785 788 791 793 795 795 794 795 796 796 795 795 794 794 792 792 792 791 789 788 786 786 787 787 787 788 787 790 790 791 794 799 800 803 806 807 808 813 814 816 818
772 778 780 784 788 790 791 792 793 793 794 795 795 794 792 791 790 789 787 785 783 780 782 782 780 782 783 786 785 785 787 789 791 796 799 802 805 806 809 812 814 816 817
770 775 779 783 785 787 788 791 792 793 794 793 793 791 789 788 787 786 784 779 776 777 774 777 774 777 779 782 784 784 786 788 790 792 797 802 805 805 807 812 813 816 817
768 773 777 781 784 786 788 791 792 792 792 791 791 788 787 783 781 780 778 775 772 771 768 769 771 773 774 778 780 782 785 786 791 792 796 800 804 804 807 809 812 814 815
767 772 776 779 784 786 788 788 789 790 790 790 789 787 783 781 779 777 774 771 770 767 765 765 767 771 773 775 776 780 782 784 789 793 795 798 802 803 802 807 809 811 813
768 771 775 777 782 785 786 786 787 788 788 787 786 783 779 776 774 773 771 767 766 765 763 764 765 769 771 774 777 778 780 782 786 791 793 794 798 801 801 804 807 810 811
770 773 775 778 781 785 784 785 786 786 785 784 781 778 774 772 771 769 768 764 762 764 764 763 763 767 771 772 775 777 780 781 783 786 789 790 794 798 800 802 804 806 806
773 776 779 781 782 783 783 784 784 784 782 780 777 774 770 768 768 768 766 763 762 759 758 762 763 765 768 771 774 776 779 780 782 785 788 791 793 797 798 800 802 803 805
774 776 778 779 780 782 782 784 785 783 781 779 776 772 768 768 768 768 765 763 763 761 757 759 765 764 766 769 772 775 778 780 782 784 788 791 794 798 798 800 800 799 801
775 776 778 780 780 781 783 784 783 782 781 779 775 771 768 767 766 766 765 765 764 762 761 761 762 767 768 770 773 776 778 780 781 785 789 791 795 798 798 799 799 797 798
775 777 778 779 781 783 784 783 783 782 780 778 776 774 771 768 768 768 767 767 766 763 762 763 762 766 770 772 775 778 779 780 783 786 789 791 793 797 798 798 798 797 795
774 777 780 782 783 784 784 784 783 782 781 779 779 778 776 774 771 771 768 768 767 765 763 763 765 765 771 772 777 779 781 782 783 787 788 790 791 795 796 797 797 796 794
774 777 780 782 783 784 785 785 784 783 783 782 781 780 778 776 774 772 769 767 766 765 764 764 766 768 769 773 777 780 781 784 784 787 789 790 791 793 795 796 796 796 795
774 777 779 781 782 784 785 785 785 785 785 785 783 782 781 778 776 773 771 768 765 763 762 762 764 766 768 772 776 782 781 783 786 786 788 791 792 792 793 795 796 796 796
773 777 778 780 783 785 785 786 786 787 787 786 785 784 782 780 778 775 771 767 764 763 762 762 761 762 765 770 774 780 782 781 785 788 786 788 790 793 793 795 796 796 796
775 778 779 780 784 786 787 788 788 788 788 787 786 785 783 781 778 774 770 767 763 761 762 762 762 761 761 766 773 778 780 781 783 787 784 785 788 790 792 794 796 796 796
772 779 781 783 783 785 787 789 789 791 789 788 787 785 783 781 777 773 769 766 764 762 762 762 762 762 763 763 764 774 777 778 781 785 783 784 785 788 790 792 795 795 797
771 777 778 781 785 786 787 791 791 790 791 789 787 785 783 781 777 774 769 767 764 764 762 762 761 761 760 762 763 765 772 776 779 781 782 782 783 785 788 790 792 794 795
774 774 777 782 787 791 792 791 791 792 792 790 787 784 783 780 777 776 772 769 767 765 763 761 760 759 759 759 760 761 764 769 773 776 777 779 780 781 784 786 790 792 793
775 775 777 785 788 790 792 792 791 790 791 790 788 787 782 779 779 776 772 770 769 767 764 762 760 758 758 756 756 758 760 761 765 768 770 773 775 777 780 783 787 789 791
780 781 784 786 786 789 791 793 791 791 791 790 789 788 784 781 781 778 773 770 769 767 764 761 760 758 757 755 753 753 755 757 758 762 764 766 770 773 776 780 784 786 788
782 786 786 786 785 787 792 793 792 793 792 790 789 787 783 782 779 776 773 769 767 766 763 760 757 756 755 752 750 749 749 750 753 756 756 758 763 768 771 776 778 780 783
787 787 789 787 788 788 792 794 794 794 793 790 790 786 781 781 778 775 772 768 765 763 761 759 756 753 751 749 747 745 744 745 746 748 748 753 756 761 765 769 772 774 777
783 779 787 789 792 795 795 795 795 794 791 790 788 783 782 780 776 773 770 767 764 762 760 757 755 751 748 746 744 742 741 741 741 742 744 746 749 754 759 764 766 770 776
782 788 791 795 794 794 795 795 794 792 790 789 785 783 781 778 775 772 768 765 762 760 757 754 752 748 743 741 740 738 737 737 737 737 738 741 744 747 752 757 763 766 771
788 793 794 796 794 795 796 796 794 791 788 785 784 782 780 778 775 771 768 764 761 758 755 753 749 745 740 737 734 733 732 731 731 733 735 736 738 742 747 752 757 762 766
Wind_Speed
35 34 31 27 23 19 17 17 19 18 18 19 20 18 16 16 16 17 18 18 19 16 18 19 20 15 15 11 10 8 7 6 6 4 10 17 17 12 10 9 9 8 8
36 34 31 27 23 20 18 17 16 18 18 18 16 16 16 17 19 20 22 24 23 20 16 19 22 18 19 11 10 9 9 7 7 10 12 16 16 13 11 11 10 10 8
30 31 28 24 23 20 16 13 14 14 15 16 16 15 18 20 22 22 21 23 24 19 10 22 19 17 16 12 12 11 12 9 10 13 14 15 15 15 11 9 10 12 10
27 28 26 24 22 18 14 12 14 14 15 16 17 16 16 15 17 16 19 23 22 16 14 20 17 15 15 14 13 12 16 15 13 20 20 16 15 17 14 11 13 14 12
23 25 23 22 18 15 13 10 5 2 5 9 13 17 17 19 22 22 21 20 20 16 12 14 12 13 13 13 16 16 20 20 19 20 17 11 15 18 18 14 16 13 12
23 20 18 18 15 10 5 3 5 8 9 11 16 19 19 19 19 21 20 18 18 13 11 13 12 11 15 14 12 13 16 24 23 19 15 19 17 18 20 18 15 9 4
18 14 12 10 6 2 2 3 6 8 10 11 14 17 19 18 17 17 15 12 9 9 10 13 13 15 15 14 14 13 13 18 20 25 23 22 19 20 19 16 17 10 5
14 13 11 10 8 6 4 4 6 8 10 12 17 16 16 14 12 9 9 10 9 6 8 14 15 18 15 16 15 14 13 11 18 22 19 18 15 16 14 13 12 11 7
13 11 9 8 7 6 7 7 8 9 11 13 13 11 10 9 7 5 8 10 9 7 3 6 14 16 16 17 17 16 14 12 11 7 19 15 14 13 13 10 8 10 6
13 12 10 9 8 8 6 7 8 8 10 14 16 11 9 6 5 5 8 9 8 5 3 3 13 11 18 18 16 17 18 16 17 15 16 16 13 11 9 9 7 11 7
11 9 9 8 7 8 8 11 12 11 10 15 16 14 16 15 15 12 9 7 8 7 2 5 11 13 17 14 11 12 12 17 15 13 15 15 13 13 8 5 3 5 7
13 12 10 10 8 8 10 12 12 12 13 13 14 14 16 17 13 12 11 8 8 5 5 1 9 17 16 13 13 10 9 12 15 14 16 16 17 13 9 5 4 2 1
9 8 8 7 8 10 11 11 13 14 15 15 14 12 12 15 16 15 13 8 5 5 2 3 7 11 12 14 13 13 13 16 18 16 15 17 17 12 9 9 6 5 4
10 9 7 5 6 6 9 11 13 14 15 13 12 12 14 14 18 19 20 18 8 5 4 9 9 13 14 17 15 17 17 18 20 17 14 13 14 16 12 14 8 8 10
7 7 8 7 10 10 13 12 14 14 13 10 11 13 14 17 19 17 19 20 17 6 3 2 6 12 17 19 19 18 21 17 19 16 12 19 20 17 14 15 11 6 7
16 18 19 19 15 13 12 16 14 13 11 11 10 11 15 18 19 15 14 15 13 4 5 5 8 10 16 19 19 20 23 20 16 16 15 26 22 19 17 14 10 9 12
21 17 18 16 13 11 9 13 11 9 10 11 11 12 16 19 16 13 9 10 11 7 3 6 10 13 17 20 21 23 23 21 17 14 18 25 19 21 18 14 14 14 11
20 16 17 16 18 18 18 13 10 11 11 12 11 11 15 20 15 12 12 7 11 11 8 8 10 11 15 18 19 22 22 21 15 17 18 24 21 22 19 17 15 19 16
18 18 18 20 18 15 12 11 10 10 10 11 13 16 20 22 16 14 12 14 13 12 12 9 8 11 15 16 20 21 20 22 24 22 19 26 25 24 21 19 18 16 22
22 21 20 16 13 11 12 12 12 11 11 12 13 15 19 22 18 19 18 15 15 15 14 13 11 8 7 16 18 21 20 22 24 25 23 24 29 25 23 22 19 19 20
19 18 14 12 12 11 11 11 11 10 10 10 10 13 15 15 14 16 16 16 17 18 17 16 16 13 9 7 11 20 23 26 26 27 23 24 30 24 20 21 21 18 18
18 15 13 14 13 13 11 11 11 10 10 11 13 13 13 13 14 16 16 17 17 17 16 17 16 16 15 11 9 8 20 24 27 27 20 22 30 30 27 26 23 21 20
16 18 17 16 15 14 10 8 8 8 9 10 11 13 14 13 15 15 15 16 16 17 16 16 16 17 16 15 11 9 9 14 21 25 27 26 32 35 29 27 22 19 25
21 23 18 14 11 9 8 7 7 7 8 9 10 11 11 11 12 13 14 16 16 17 17 17 17 17 18 17 15 13 11 12 15 16 25 29 34 35 32 26 26 24 20
22 20 16 12 11 9 7 5 5 8 9 9 10 10 10 10 11 12 13 14 14 16 17 19 19 19 18 19 19 17 16 14 14 14 16 27 31 36 33 33 29 26 21
18 16 14 12 12 9 4 2 3 6 9 11 11 12 12 11 12 13 15 15 14 13 14 16 18 20 20 19 18 19 20 18 16 16 15 19 27 31 31 29 31 28 25
Wind_Direction
218 216 219 220 224 230 238 242 243 246 250 258 269 273 272 280 284 285 286 284 278 270 253 236 238 229 219 224 208 213 191 178 130 142 175 184 182 182 176 206 193 194 205
215 214 214 216 216 223 235 244 250 252 259 269 278 288 291 293 292 288 289 282 280 278 273 267 234 233 222 213 206 192 180 168 147 143 154 172 184 181 188 209 198 203 208
206 208 211 211 213 219 228 240 252 266 276 281 284 289 296 301 304 299 300 294 295 300 274 273 258 230 220 199 205 194 179 177 161 163 158 178 176 178 181 202 210 207 210
203 205 205 208 214 217 235 252 263 265 271 277 282 286 301 311 304 301 299 302 307 301 259 245 262 242 224 187 185 177 174 165 159 156 160 173 174 176 177 189 177 192 201
190 198 202 207 213 212 212 230 241 313 318 318 308 304 304 304 303 307 304 301 305 302 257 243 245 246 210 185 182 173 175 168 164 166 164 168 174 177 189 201 202 201 212
152 142 150 165 175 182 198 252 330 328 314 306 297 302 303 303 303 305 304 315 314 297 258 236 220 202 181 177 186 187 188 178 175 178 170 178 187 196 197 205 207 197 223
120 120 124 136 142 111 342 338 327 325 324 318 314 310 306 305 307 307 317 329 319 311 278 212 191 173 176 168 161 166 177 200 201 190 187 188 190 195 201 201 202 205 202
114 113 121 121 118 102 75 35 11 358 345 336 329 319 308 308 311 323 347 355 347 318 274 232 193 174 180 174 164 155 156 167 192 206 206 196 200 193 195 205 205 204 199
120 117 112 109 102 80 52 31 14 358 358 350 350 349 351 347 356 358 356 353 345 336 14 216 198 181 176 176 165 151 155 161 153 175 192 183 172 179 179 180 207 202 218
126 119 117 105 87 64 48 40 22 13 34 17 24 19 14 41 32 1 7 14 42 44 27 203 196 191 169 170 164 154 154 161 160 157 161 162 166 173 179 192 230 212 195
121 121 104 104 95 63 74 63 67 51 38 32 38 45 53 60 63 57 51 33 33 35 344 215 203 174 170 170 178 174 170 170 171 178 175 171 174 179 178 177 187 209 211
120 120 110 117 104 67 81 74 54 45 47 47 51 53 52 49 46 37 36 28 26 24 41 140 169 159 180 191 205 188 179 166 166 177 170 172 175 192 192 199 185 282 262
137 137 132 123 116 86 80 80 57 50 47 40 33 34 23 15 15 17 15 5 0 350 223 182 180 182 187 190 203 196 181 177 172 180 176 178 186 192 189 182 151 117 108
129 126 132 139 148 126 105 89 77 65 54 41 29 23 17 10 3 359 356 355 337 346 359 224 233 210 203 202 202 211 207 193 196 198 201 211 220 192 194 173 158 130 120
128 117 83 144 136 126 111 91 79 74 62 53 39 33 23 10 352 342 341 343 341 314 306 246 192 193 194 202 208 216 208 204 207 218 236 204 188 192 184 180 176 173 152
101 92 84 89 100 121 116 104 87 75 58 48 37 33 17 2 346 337 336 343 339 308 290 253 231 212 198 201 213 218 216 218 224 235 240 192 191 196 189 195 205 197 161
107 97 86 80 76 71 83 138 96 73 58 39 19 7 358 349 349 350 347 10 10 355 274 279 258 227 213 210 209 223 230 231 229 244 217 196 196 188 195 208 217 201 172
102 92 81 73 86 91 94 86 65 44 24 15 15 360 354 355 0 9 24 18 17 12 344 290 286 260 237 227 224 223 234 245 249 234 225 208 200 194 199 206 197 197 186
99 94 90 94 85 79 75 66 58 42 25 12 4 351 353 353 359 3 9 22 7 3 359 3 338 290 257 243 235 233 232 239 244 250 235 221 209 200 207 206 200 201 196
102 104 104 97 80 64 52 48 40 32 21 10 4 351 345 350 354 353 358 359 352 349 345 342 339 339 340 262 247 242 237 233 236 239 239 234 216 209 207 208 208 194 201
106 99 97 89 74 63 48 34 26 13 6 359 351 338 339 340 339 343 345 348 341 336 333 332 329 322 315 315 270 252 226 227 233 232 231 230 218 203 199 208 219 222 206
109 97 86 81 75 66 57 39 26 9 359 355 345 343 342 337 334 338 337 338 337 333 329 322 316 314 308 301 303 268 244 235 228 228 226 230 220 210 202 209 216 224 214
103 101 93 84 74 60 52 38 24 10 4 356 346 351 355 347 343 342 340 338 336 334 332 325 316 311 307 296 285 279 251 241 248 240 235 234 219 209 205 207 213 214 211
92 81 76 81 79 68 62 46 28 13 5 354 352 353 345 340 347 349 346 343 339 334 330 326 317 311 307 302 290 274 261 242 238 241 241 223 208 205 203 200 192 198 212
91 91 90 87 89 80 63 40 19 11 6 356 354 353 347 352 354 355 354 351 346 343 332 324 319 314 306 298 292 282 265 245 229 230 230 225 210 206 203 199 204 201 212
108 104 102 94 81 76 85 53 25 8 14 10 6 6 1 355 354 353 348 347 346 342 340 338 333 320 311 302 288 275 268 255 236 231 226 220 213 211 204 202 202 204 204